User: anonymous   Login
Location: Unspecified
(0.0000°N, 0.0000°E)
Time: 21:11:59
(UTC+00:00)
Language:

Vela 3A - Orbit

View from above orbital plane
View from above orbital plane
View from above satellite
View from above satellite

Ground track
Ground track

The orbit data is extracted from the following two-line orbital elements,

1  1458U 65058A   18205.80424079 -.00000941 +00000-0 +00000-0 0  9997
2  1458 022.6162 002.2488 5122855 241.3934 001.5526 00.21427625080025
Epoch (UTC): 24 July 2018 19:18:06
Eccentricity: 0.5122855
inclination: 22.6162°
perigee height: 51154 km
apogee height: 172016 km
right ascension of ascending node: 2.2488°
argument of perigee: 241.3934°
revolutions per day: 0.21427625
mean anomaly at epoch: 1.5526°
orbit number at epoch: 8002

The dashed part of the orbit path shows where the satellite is in the earth's shadow,  

DLR